Regional Weather Roundup
Issued by NWS

Home | Current Version | Previous Version | Graphics & Text | Print | Product List | Glossary On
Versions: 1 2 3 4 5 6 7 8 9 10 11 12 13 14 15 16 17 18 19 20 21 22 23 24 25 26 27 28 29 30 31 32 33 34 35 36 37 38 39 40 41 42 43 44 45 46 47 48 49 50
000
ASUS43 KBIS 260902
RWRND

NORTH DAKOTA REGIONAL WEATHER ROUNDUP
NATIONAL WEATHER SERVICE BISMARCK ND
400 AM CDT WED JUL 26 2017

NOTE: "FAIR" INDICATES FEW OR NO CLOUDS BELOW 12,000 FEET WITH NO
SIGNIFICANT WEATHER AND/OR OBSTRUCTIONS TO VISIBILITY.


NDZ001>003-009>011-017-261000-
NORTHWEST NORTH DAKOTA

CITY           SKY/WX    TMP DP  RH WIND       PRES   REMARKS
WILLISTON      CLEAR     56  47  71 N3        30.12R
MINOT          CLEAR     60  54  80 SW6       30.08R
MINOT AFB      CLEAR     55  53  91 W5        30.07R
$$

NDZ018>021-031>035-040>046-261000-
SOUTHWEST NORTH DAKOTA

CITY           SKY/WX    TMP DP  RH WIND       PRES   REMARKS
BISMARCK       CLOUDY    62  56  80 CALM      30.08R
DICKINSON      CLEAR     60  49  66 NE8       30.10S
GARRISON         N/A     57  54  89 NW6       30.08S
HETTINGER ARPT MOCLDY    60  54  80 CALM      30.12R
$$

NDZ004>008-012>016-024-026-027-054-261000-
NORTHEAST NORTH DAKOTA

CITY           SKY/WX    TMP DP  RH WIND       PRES   REMARKS
GRAND FORKS    MOCLDY    61  59  93 W6        29.98R
GRND FRKS AFB  MOCLDY    62  57  86 NW7       29.99R
DEVILS LAKE    CLEAR     63  60  90 W8        30.05R
$$

NDZ022-023-025-028>030-036>039-047>053-261000-
SOUTHEAST NORTH DAKOTA

CITY           SKY/WX    TMP DP  RH WIND       PRES   REMARKS
FARGO          CLOUDY    64  58  80 NW5       29.98S
JAMESTOWN      CLOUDY    62  58  86 NW6       30.03R
$$




USA.gov is the U.S. government's official web portal to all federal, state and local government web resources and services.